1597356019,2020-08-14 00:00,57.68,1000.46,1018.77,152,15.40,7.11,-93,1
1597356080,2020-08-14 00:01,58.59,1000.46,1018.77,152,15.39,7.33,-92,1
1597356141,2020-08-14 00:02,58.60,1000.44,1018.75,152,15.39,7.33,-93,1
1597356204,2020-08-14 00:03,58.53,1000.45,1018.76,152,15.38,7.31,-92,1
1597356265,2020-08-14 00:04,58.31,1000.44,1018.75,152,15.37,7.24,-92,1
1597356325,2020-08-14 00:05,58.60,1000.44,1018.76,152,15.37,7.32,-92,1
1597356386,2020-08-14 00:06,58.79,1000.40,1018.71,152,15.36,7.35,-93,1
1597356446,2020-08-14 00:07,58.63,1000.41,1018.72,152,15.36,7.31,-93,1
1597356507,2020-08-14 00:08,58.67,1000.40,1018.71,152,15.36,7.32,-93,1
1597356567,2020-08-14 00:09,58.57,1000.42,1018.73,152,15.35,7.29,-91,1
1597356628,2020-08-14 00:10,58.57,1000.41,1018.72,152,15.36,7.30,-92,1
1597356688,2020-08-14 00:11,58.99,1000.36,1018.68,152,15.35,7.39,-93,1
1597356749,2020-08-14 00:12,58.93,1000.38,1018.69,152,15.34,7.37,-90,1
1597356810,2020-08-14 00:13,59.24,1000.39,1018.70,152,15.34,7.45,-92,1
1597356870,2020-08-14 00:14,59.29,1000.39,1018.70,152,15.33,7.45,-92,1
1597356931,2020-08-14 00:15,59.36,1000.39,1018.70,152,15.33,7.47,-93,1
1597356991,2020-08-14 00:16,59.50,1000.42,1018.74,152,15.32,7.49,-93,1
1597357052,2020-08-14 00:17,59.75,1000.42,1018.73,152,15.31,7.54,-92,1
1597357112,2020-08-14 00:18,59.73,1000.42,1018.73,152,15.28,7.51,-92,1
1597357173,2020-08-14 00:19,59.87,1000.37,1018.69,152,15.28,7.55,-94,1
1597357233,2020-08-14 00:20,59.93,1000.41,1018.72,152,15.26,7.54,-93,1
1597357294,2020-08-14 00:21,60.04,1000.43,1018.74,152,15.25,7.56,-91,1
1597357354,2020-08-14 00:22,59.87,1000.42,1018.73,152,15.22,7.49,-93,1
1597357415,2020-08-14 00:23,59.83,1000.42,1018.73,152,15.20,7.46,-92,1
1597357475,2020-08-14 00:24,59.84,1000.40,1018.72,152,15.17,7.43,-92,1
1597357536,2020-08-14 00:25,59.99,1000.41,1018.72,152,15.13,7.43,-92,1
1597357596,2020-08-14 00:26,60.27,1000.41,1018.72,152,15.10,7.47,-92,1
1597357657,2020-08-14 00:27,60.08,1000.41,1018.72,152,15.06,7.39,-93,1
1597357717,2020-08-14 00:28,60.41,1000.42,1018.73,152,15.02,7.43,-93,1
1597357778,2020-08-14 00:29,60.49,1000.43,1018.74,152,14.98,7.41,-93,1
1597357838,2020-08-14 00:30,60.67,1000.41,1018.72,152,14.94,7.42,-92,1
1597357899,2020-08-14 00:31,61.03,1000.41,1018.72,152,14.89,7.46,-93,1
1597357959,2020-08-14 00:32,61.38,1000.45,1018.76,152,14.85,7.50,-92,1
1597358021,2020-08-14 00:33,61.81,1000.41,1018.73,152,14.82,7.58,-92,1
1597358083,2020-08-14 00:34,61.92,1000.41,1018.73,152,14.79,7.58,-93,1
1597358143,2020-08-14 00:35,61.59,1000.35,1018.66,152,14.78,7.49,-93,1
1597358207,2020-08-14 00:36,61.94,1000.36,1018.68,152,14.76,7.55,-92,1
1597358267,2020-08-14 00:37,61.73,1000.37,1018.68,152,14.75,7.49,-92,1
1597358327,2020-08-14 00:38,61.19,1000.41,1018.72,152,14.75,7.36,-92,1
1597358388,2020-08-14 00:39,61.82,1000.42,1018.73,152,14.72,7.49,-92,1
1597358449,2020-08-14 00:40,62.04,1000.43,1018.74,152,14.71,7.53,-92,1
1597358509,2020-08-14 00:41,61.77,1000.45,1018.76,152,14.71,7.47,-92,1
1597358570,2020-08-14 00:42,61.77,1000.46,1018.78,152,14.70,7.46,-92,1
1597358630,2020-08-14 00:43,61.73,1000.49,1018.80,152,14.70,7.44,-91,1
1597358691,2020-08-14 00:44,61.91,1000.50,1018.82,152,14.70,7.49,-93,1
1597358751,2020-08-14 00:45,61.87,1000.53,1018.84,152,14.71,7.49,-93,1
1597358812,2020-08-14 00:46,61.59,1000.52,1018.83,152,14.71,7.42,-92,1
1597358872,2020-08-14 00:47,61.88,1000.52,1018.83,152,14.70,7.48,-91,1
1597358932,2020-08-14 00:48,60.67,1000.52,1018.83,152,14.68,7.17,-92,1
1597358993,2020-08-14 00:49,61.30,1000.51,1018.83,152,14.69,7.33,-90,1
1597359053,2020-08-14 00:50,61.21,1000.51,1018.82,152,14.69,7.31,-92,1
1597359113,2020-08-14 00:51,59.18,1000.48,1018.79,152,14.69,6.82,-92,1
1597359174,2020-08-14 00:52,61.56,1000.48,1018.79,152,14.68,7.39,-89,1
1597359234,2020-08-14 00:53,61.29,1000.46,1018.77,152,14.67,7.31,-93,1
1597359294,2020-08-14 00:54,61.24,1000.46,1018.77,152,14.66,7.29,-94,1
1597359355,2020-08-14 00:55,61.37,1000.44,1018.76,152,14.67,7.33,-92,1
1597359415,2020-08-14 00:56,61.40,1000.44,1018.75,152,14.65,7.32,-92,1
1597359475,2020-08-14 00:57,60.95,1000.39,1018.70,152,14.65,7.21,-93,1
1597359535,2020-08-14 00:58,61.26,1000.44,1018.75,152,14.64,7.28,-93,1
1597359596,2020-08-14 00:59,61.56,1000.42,1018.74,152,14.64,7.35,-95,1
1597359656,2020-08-14 01:00,61.12,1000.45,1018.76,152,14.64,7.24,-92,1
1597359716,2020-08-14 01:01,61.44,1000.46,1018.78,152,14.64,7.32,-92,1
1597359776,2020-08-14 01:02,61.60,1000.48,1018.79,152,14.65,7.37,-91,1
1597359837,2020-08-14 01:03,61.41,1000.47,1018.78,152,14.65,7.32,-93,1
1597359897,2020-08-14 01:04,61.49,1000.51,1018.83,152,14.64,7.33,-90,1
1597359957,2020-08-14 01:05,61.47,1000.51,1018.82,152,14.64,7.33,-91,1
1597360017,2020-08-14 01:06,61.43,1000.53,1018.85,152,14.62,7.30,-93,1
1597360077,2020-08-14 01:07,61.19,1000.52,1018.84,152,14.60,7.22,-92,1
1597360137,2020-08-14 01:08,61.38,1000.57,1018.89,152,14.59,7.26,-91,1
1597360197,2020-08-14 01:09,61.33,1000.55,1018.87,152,14.57,7.23,-89,1
1597360258,2020-08-14 01:10,61.31,1000.57,1018.88,152,14.54,7.20,-92,1
1597360318,2020-08-14 01:11,61.63,1000.59,1018.90,152,14.51,7.24,-93,1
1597360378,2020-08-14 01:12,61.80,1000.56,1018.87,152,14.48,7.25,-93,1
1597360438,2020-08-14 01:13,61.78,1000.56,1018.88,152,14.43,7.20,-92,1
1597360498,2020-08-14 01:14,61.98,1000.55,1018.86,152,14.37,7.19,-92,1
1597360558,2020-08-14 01:15,62.48,1000.55,1018.86,152,14.33,7.27,-92,1
1597360618,2020-08-14 01:16,62.58,1000.55,1018.87,152,14.31,7.28,-92,1
1597360679,2020-08-14 01:17,62.62,1000.56,1018.87,152,14.25,7.23,-93,1
1597360739,2020-08-14 01:18,62.68,1000.54,1018.85,152,14.22,7.22,-91,1
1597360799,2020-08-14 01:19,62.77,1000.55,1018.86,152,14.20,7.22,-94,1
1597360859,2020-08-14 01:20,63.03,1000.55,1018.86,152,14.17,7.25,-94,1
1597360922,2020-08-14 01:22,62.87,1000.56,1018.87,152,14.15,7.19,-93,1
1597360982,2020-08-14 01:23,62.21,1000.53,1018.85,152,14.13,7.02,-92,1
1597361042,2020-08-14 01:24,62.78,1000.56,1018.88,152,14.10,7.12,-92,1
1597361102,2020-08-14 01:25,62.50,1000.58,1018.89,152,14.09,7.05,-92,1
1597361162,2020-08-14 01:26,62.50,1000.54,1018.85,152,14.09,7.05,-92,1
1597361222,2020-08-14 01:27,62.46,1000.53,1018.84,152,14.08,7.03,-92,1
1597361282,2020-08-14 01:28,63.10,1000.52,1018.83,152,14.06,7.16,-90,1
1597361342,2020-08-14 01:29,63.11,1000.54,1018.86,152,14.06,7.16,-93,1
1597361403,2020-08-14 01:30,63.18,1000.56,1018.87,152,14.06,7.18,-92,1
1597361463,2020-08-14 01:31,63.56,1000.56,1018.87,152,14.04,7.25,-93,1
1597361523,2020-08-14 01:32,63.45,1000.60,1018.91,152,14.04,7.22,-93,1
1597361583,2020-08-14 01:33,63.20,1000.60,1018.91,152,14.05,7.18,-90,1
1597361643,2020-08-14 01:34,63.58,1000.62,1018.93,152,14.03,7.24,-90,1
1597361703,2020-08-14 01:35,63.03,1000.55,1018.86,152,14.02,7.11,-94,1
1597361763,2020-08-14 01:36,62.71,1000.66,1018.97,152,14.01,7.02,-92,1
1597361824,2020-08-14 01:37,63.41,1000.67,1018.98,152,13.98,7.16,-91,1
1597361884,2020-08-14 01:38,63.26,1000.64,1018.95,152,13.95,7.09,-91,1
1597361944,2020-08-14 01:39,63.49,1000.69,1019.00,152,13.93,7.13,-93,1
1597362005,2020-08-14 01:40,63.72,1000.73,1019.04,152,13.91,7.16,-90,1
1597362065,2020-08-14 01:41,63.62,1000.68,1018.99,152,13.87,7.10,-92,1
1597362125,2020-08-14 01:42,63.85,1000.68,1018.99,152,13.84,7.13,-91,1
1597362185,2020-08-14 01:43,63.78,1000.66,1018.98,152,13.81,7.08,-93,1
1597362246,2020-08-14 01:44,64.11,1000.65,1018.97,152,13.78,7.13,-93,1
1597362306,2020-08-14 01:45,64.36,1000.64,1018.96,152,13.77,7.18,-92,1
1597362366,2020-08-14 01:46,64.27,1000.60,1018.91,152,13.73,7.12,-92,1
1597362427,2020-08-14 01:47,64.55,1000.60,1018.91,152,13.70,7.15,-92,1
1597362487,2020-08-14 01:48,64.40,1000.64,1018.95,152,13.68,7.10,-93,1
1597362547,2020-08-14 01:49,64.91,1000.60,1018.91,152,13.67,7.20,-93,1
1597362607,2020-08-14 01:50,64.54,1000.60,1018.91,152,13.66,7.11,-92,1
1597362668,2020-08-14 01:51,64.76,1000.64,1018.95,152,13.64,7.14,-92,1
1597362728,2020-08-14 01:52,64.50,1000.62,1018.93,152,13.62,7.06,-92,1
1597362788,2020-08-14 01:53,64.63,1000.63,1018.94,152,13.60,7.07,-91,1
1597362848,2020-08-14 01:54,64.37,1000.64,1018.95,152,13.59,7.01,-93,1
1597362908,2020-08-14 01:55,65.12,1000.66,1018.98,152,13.57,7.16,-92,1
1597362968,2020-08-14 01:56,65.25,1000.66,1018.98,152,13.56,7.18,-93,1
1597363028,2020-08-14 01:57,65.01,1000.65,1018.96,152,13.55,7.11,-92,1
1597363088,2020-08-14 01:58,64.65,1000.67,1018.98,152,13.52,7.00,-93,1
1597363148,2020-08-14 01:59,64.89,1000.67,1018.98,152,13.51,7.05,-90,1
1597363208,2020-08-14 02:00,65.36,1000.72,1019.04,152,13.50,7.14,-93,1
1597363269,2020-08-14 02:01,65.30,1000.72,1019.04,152,13.49,7.12,-93,1
1597363329,2020-08-14 02:02,65.28,1000.73,1019.04,152,13.47,7.10,-93,1
1597363389,2020-08-14 02:03,65.22,1000.70,1019.01,152,13.33,6.95,-94,1
1597363449,2020-08-14 02:04,65.49,1000.70,1019.02,152,13.45,7.12,-92,1
1597363509,2020-08-14 02:05,65.41,1000.72,1019.03,152,13.43,7.09,-94,1
1597363569,2020-08-14 02:06,65.39,1000.72,1019.04,152,13.41,7.06,-94,1
1597363630,2020-08-14 02:07,64.10,1000.75,1019.06,152,13.42,6.78,-92,1
1597363690,2020-08-14 02:08,64.21,1000.72,1019.03,152,13.42,6.81,-92,1
1597363750,2020-08-14 02:09,65.09,1000.70,1019.01,152,13.42,7.01,-92,1
1597363810,2020-08-14 02:10,65.16,1000.72,1019.04,152,13.42,7.02,-93,1
1597363870,2020-08-14 02:11,65.54,1000.71,1019.03,152,13.41,7.10,-91,1
1597363930,2020-08-14 02:12,65.88,1000.72,1019.03,152,13.42,7.18,-92,1
1597363990,2020-08-14 02:13,65.53,1000.70,1019.01,152,13.42,7.11,-93,1
1597364051,2020-08-14 02:14,65.71,1000.74,1019.06,152,13.43,7.15,-93,1
1597364111,2020-08-14 02:15,65.64,1000.70,1019.01,152,13.42,7.13,-90,1
1597364171,2020-08-14 02:16,65.89,1000.67,1018.98,152,13.42,7.18,-93,1
1597364231,2020-08-14 02:17,65.92,1000.66,1018.98,152,13.42,7.19,-93,1
1597364291,2020-08-14 02:18,65.96,1000.66,1018.97,152,13.42,7.20,-91,1
1597364351,2020-08-14 02:19,65.99,1000.66,1018.97,152,13.42,7.21,-93,1
1597364412,2020-08-14 02:20,66.10,1000.65,1018.97,152,13.33,7.15,-93,1
1597364472,2020-08-14 02:21,64.85,1000.65,1018.96,152,13.41,6.94,-91,1
1597364532,2020-08-14 02:22,65.55,1000.65,1018.97,152,13.42,7.11,-92,1
1597364592,2020-08-14 02:23,65.79,1000.63,1018.95,152,13.42,7.16,-90,1
1597364652,2020-08-14 02:24,65.67,1000.64,1018.95,152,13.42,7.14,-92,1
1597364712,2020-08-14 02:25,65.69,1000.67,1018.99,152,13.31,7.04,-92,1
1597364773,2020-08-14 02:26,65.78,1000.64,1018.95,152,13.40,7.14,-92,1
1597364833,2020-08-14 02:27,65.94,1000.69,1019.00,152,13.42,7.20,-91,1
1597364893,2020-08-14 02:28,65.88,1000.63,1018.94,152,13.42,7.18,-92,1
1597364953,2020-08-14 02:29,65.71,1000.62,1018.93,152,13.41,7.14,-92,1
1597365013,2020-08-14 02:30,65.85,1000.64,1018.96,152,13.41,7.17,-92,1
1597365073,2020-08-14 02:31,64.58,1000.59,1018.91,152,13.42,6.89,-90,1
1597365133,2020-08-14 02:32,64.61,1000.63,1018.94,152,13.42,6.90,-94,1
1597365193,2020-08-14 02:33,65.45,1000.63,1018.94,152,13.41,7.08,-92,1
1597365254,2020-08-14 02:34,65.70,1000.63,1018.94,152,13.39,7.11,-92,1
1597365314,2020-08-14 02:35,65.47,1000.65,1018.96,152,13.38,7.05,-92,1
1597365374,2020-08-14 02:36,65.25,1000.68,1019.00,152,13.36,6.98,-91,1
1597365497,2020-08-14 02:38,65.15,1000.68,1018.99,152,13.31,6.92,-93,1
1597365558,2020-08-14 02:39,65.21,1000.65,1018.97,152,13.29,6.91,-94,1
1597365618,2020-08-14 02:40,65.35,1000.69,1019.00,152,13.27,6.92,-93,1
1597365678,2020-08-14 02:41,65.31,1000.66,1018.97,152,13.25,6.89,-92,1
1597365739,2020-08-14 02:42,65.66,1000.66,1018.97,152,13.22,6.94,-90,1
1597365799,2020-08-14 02:43,65.72,1000.65,1018.96,152,13.20,6.94,-92,1
1597365859,2020-08-14 02:44,65.73,1000.65,1018.96,152,13.18,6.92,-94,1
1597365920,2020-08-14 02:45,66.23,1000.66,1018.97,152,13.16,7.01,-93,1
1597365980,2020-08-14 02:46,65.91,1000.64,1018.95,152,13.17,6.95,-92,1
1597366040,2020-08-14 02:47,66.62,1000.64,1018.95,152,13.15,7.09,-92,1
1597366100,2020-08-14 02:48,67.35,1000.64,1018.96,152,13.14,7.24,-92,1
1597366161,2020-08-14 02:49,66.99,1000.59,1018.91,152,13.14,7.16,-92,1
1597366221,2020-08-14 02:50,67.11,1000.62,1018.93,152,13.14,7.19,-93,1
1597366281,2020-08-14 02:51,66.92,1000.60,1018.91,152,13.13,7.14,-93,1
1597366341,2020-08-14 02:52,67.50,1000.59,1018.90,152,13.13,7.26,-92,1
1597366401,2020-08-14 02:53,67.36,1000.59,1018.90,152,13.12,7.22,-90,1
1597366462,2020-08-14 02:54,67.39,1000.60,1018.92,152,13.11,7.22,-93,1
1597366522,2020-08-14 02:55,67.80,1000.58,1018.89,152,13.12,7.32,-92,1
1597366582,2020-08-14 02:56,65.81,1000.58,1018.90,152,13.13,6.89,-92,1
1597366642,2020-08-14 02:57,65.74,1000.58,1018.89,152,13.14,6.88,-91,1
1597366702,2020-08-14 02:58,67.69,1000.61,1018.92,152,13.13,7.30,-92,1
1597366762,2020-08-14 02:59,67.16,1000.61,1018.92,152,13.13,7.19,-93,1
1597366822,2020-08-14 03:00,67.54,1000.62,1018.93,152,13.14,7.28,-91,1
1597366883,2020-08-14 03:01,67.81,1000.64,1018.95,152,13.14,7.34,-91,1
1597366943,2020-08-14 03:02,67.33,1000.61,1018.92,152,13.14,7.23,-92,1
1597367003,2020-08-14 03:03,67.59,1000.56,1018.88,152,13.12,7.27,-92,1
1597367063,2020-08-14 03:04,67.02,1000.57,1018.88,152,13.13,7.16,-92,1
1597367123,2020-08-14 03:05,67.45,1000.61,1018.93,152,13.13,7.25,-91,1
1597367183,2020-08-14 03:06,66.01,1000.61,1018.93,152,13.13,6.94,-93,1
1597367243,2020-08-14 03:07,67.33,1000.62,1018.94,152,13.13,7.22,-91,1
1597367303,2020-08-14 03:08,67.54,1000.59,1018.90,152,13.12,7.26,-93,1
1597367363,2020-08-14 03:09,65.80,1000.59,1018.90,152,13.11,6.87,-91,1
1597367424,2020-08-14 03:10,65.87,1000.59,1018.91,152,13.09,6.87,-92,1
1597367484,2020-08-14 03:11,67.57,1000.64,1018.95,152,13.08,7.23,-93,1
1597367544,2020-08-14 03:12,67.74,1000.62,1018.93,152,13.05,7.24,-91,1
1597367604,2020-08-14 03:13,67.63,1000.60,1018.91,152,13.04,7.20,-91,1
1597367664,2020-08-14 03:14,67.65,1000.63,1018.94,152,13.01,7.18,-92,1
1597367724,2020-08-14 03:15,68.01,1000.65,1018.97,152,13.00,7.25,-95,1
1597367784,2020-08-14 03:16,68.41,1000.64,1018.95,152,12.99,7.32,-90,1
1597367845,2020-08-14 03:17,68.25,1000.63,1018.94,152,12.97,7.27,-92,1
1597367905,2020-08-14 03:18,66.99,1000.59,1018.90,152,12.96,6.99,-93,1
1597367965,2020-08-14 03:19,68.42,1000.62,1018.93,152,12.95,7.29,-93,1
1597368025,2020-08-14 03:20,68.67,1000.58,1018.90,152,12.92,7.31,-93,1
1597368085,2020-08-14 03:21,68.97,1000.56,1018.87,152,12.92,7.38,-93,1
1597368145,2020-08-14 03:22,68.96,1000.57,1018.88,152,12.90,7.35,-92,1
1597368205,2020-08-14 03:23,66.77,1000.52,1018.84,152,12.89,6.87,-89,1
1597368265,2020-08-14 03:24,68.87,1000.54,1018.86,152,12.85,7.29,-92,1
1597368326,2020-08-14 03:25,68.83,1000.53,1018.85,152,12.85,7.28,-91,1
1597368386,2020-08-14 03:26,68.93,1000.54,1018.85,152,12.83,7.28,-92,1
1597368446,2020-08-14 03:27,69.13,1000.56,1018.87,152,12.82,7.31,-93,1
1597368506,2020-08-14 03:28,67.38,1000.58,1018.89,152,12.78,6.90,-91,1
1597368566,2020-08-14 03:29,68.60,1000.56,1018.87,152,12.78,7.16,-90,1
1597368626,2020-08-14 03:30,68.38,1000.54,1018.85,152,12.77,7.11,-89,1
1597368686,2020-08-14 03:31,67.97,1000.55,1018.86,152,12.75,7.00,-93,1
1597368747,2020-08-14 03:32,68.87,1000.55,1018.86,152,12.70,7.14,-91,1
1597368807,2020-08-14 03:33,68.25,1000.56,1018.87,152,12.71,7.02,-92,1
1597368867,2020-08-14 03:34,68.71,1000.58,1018.89,152,12.69,7.10,-94,1
1597368927,2020-08-14 03:35,67.14,1000.60,1018.91,152,12.68,6.75,-92,1
1597368987,2020-08-14 03:36,68.81,1000.60,1018.91,152,12.65,7.08,-91,1
1597369048,2020-08-14 03:37,69.06,1000.60,1018.91,152,12.63,7.12,-91,1
1597369108,2020-08-14 03:38,69.51,1000.59,1018.90,152,12.59,7.17,-93,1
1597369168,2020-08-14 03:39,68.32,1000.59,1018.90,152,12.60,6.93,-92,1
1597369228,2020-08-14 03:40,69.83,1000.64,1018.95,152,12.58,7.23,-92,1
1597369288,2020-08-14 03:41,69.34,1000.63,1018.94,152,12.56,7.11,-90,1
1597369348,2020-08-14 03:42,69.92,1000.64,1018.95,152,12.55,7.22,-91,1
1597369408,2020-08-14 03:43,69.26,1000.64,1018.96,152,12.52,7.05,-92,1
1597369468,2020-08-14 03:44,69.88,1000.65,1018.96,152,12.51,7.17,-92,1
1597369528,2020-08-14 03:45,70.24,1000.65,1018.97,152,12.49,7.23,-91,1
1597369588,2020-08-14 03:46,70.48,1000.69,1019.00,152,12.48,7.27,-93,1
1597369648,2020-08-14 03:47,70.32,1000.72,1019.04,152,12.46,7.22,-93,1
1597369708,2020-08-14 03:48,70.61,1000.71,1019.02,152,12.46,7.28,-92,1
1597369768,2020-08-14 03:49,70.42,1000.70,1019.01,152,12.44,7.22,-92,1
1597369828,2020-08-14 03:50,70.75,1000.73,1019.05,152,12.43,7.28,-94,1
1597369889,2020-08-14 03:51,70.80,1000.73,1019.04,152,12.41,7.27,-93,1
1597369949,2020-08-14 03:52,70.91,1000.70,1019.02,152,12.40,7.28,-91,1
1597370009,2020-08-14 03:53,71.10,1000.72,1019.03,152,12.39,7.31,-92,1
1597370069,2020-08-14 03:54,71.02,1000.73,1019.04,152,12.37,7.28,-93,1
1597370129,2020-08-14 03:55,70.92,1000.75,1019.06,152,12.36,7.25,-92,1
1597370189,2020-08-14 03:56,71.07,1000.72,1019.04,152,12.35,7.27,-92,1
1597370249,2020-08-14 03:57,71.27,1000.71,1019.02,152,12.34,7.30,-92,1
1597370309,2020-08-14 03:58,71.09,1000.69,1019.00,152,12.32,7.24,-92,1
1597370369,2020-08-14 03:59,71.35,1000.71,1019.02,152,12.31,7.29,-92,1
1597370430,2020-08-14 04:00,71.57,1000.70,1019.01,152,12.29,7.31,-92,1
1597370490,2020-08-14 04:01,71.61,1000.73,1019.04,152,12.29,7.32,-92,1
1597370550,2020-08-14 04:02,71.82,1000.75,1019.06,152,12.29,7.36,-92,1
1597370610,2020-08-14 04:03,71.58,1000.73,1019.05,152,12.27,7.29,-93,1
1597370670,2020-08-14 04:04,71.91,1000.68,1018.99,152,12.27,7.36,-92,1
1597370730,2020-08-14 04:05,71.88,1000.69,1019.01,152,12.26,7.35,-92,1
1597370790,2020-08-14 04:06,71.79,1000.70,1019.01,152,12.25,7.32,-93,1
1597370851,2020-08-14 04:07,72.01,1000.55,1018.87,152,12.25,7.36,-93,1
1597370911,2020-08-14 04:08,72.04,1000.72,1019.03,152,12.24,7.36,-92,1
1597370971,2020-08-14 04:09,72.09,1000.71,1019.02,152,12.23,7.36,-91,1
1597371031,2020-08-14 04:10,71.87,1000.69,1019.00,152,12.24,7.32,-92,1
1597371091,2020-08-14 04:11,71.96,1000.65,1018.97,152,12.23,7.33,-93,1
1597371151,2020-08-14 04:12,72.07,1000.68,1019.00,152,12.24,7.36,-92,1
1597371211,2020-08-14 04:13,72.07,1000.67,1018.98,152,12.23,7.36,-91,1
1597371271,2020-08-14 04:14,71.99,1000.67,1018.98,152,12.22,7.33,-92,1
1597371332,2020-08-14 04:15,71.84,1000.70,1019.02,152,12.23,7.31,-94,1
1597371392,2020-08-14 04:16,71.29,1000.72,1019.03,152,12.23,7.20,-92,1
1597371452,2020-08-14 04:17,71.36,1000.72,1019.03,152,12.23,7.21,-91,1
1597371512,2020-08-14 04:18,70.85,1000.72,1019.03,152,12.21,7.09,-91,1
1597371572,2020-08-14 04:19,70.80,1000.71,1019.02,152,12.20,7.07,-93,1
1597371632,2020-08-14 04:20,71.07,1000.77,1019.09,152,12.21,7.13,-91,1
1597371692,2020-08-14 04:21,70.12,1000.78,1019.09,152,12.19,6.92,-92,1
1597371752,2020-08-14 04:22,70.44,1000.76,1019.07,152,12.19,6.98,-91,1
1597371812,2020-08-14 04:23,70.47,1000.76,1019.07,152,12.17,6.97,-90,1
1597371872,2020-08-14 04:24,70.24,1000.77,1019.08,152,12.10,6.86,-92,1
1597371933,2020-08-14 04:25,70.53,1000.75,1019.07,152,12.10,6.91,-92,1
1597371993,2020-08-14 04:26,70.90,1000.73,1019.04,152,12.10,6.99,-93,1
1597372053,2020-08-14 04:27,70.77,1000.73,1019.04,152,12.10,6.97,-93,1
1597372113,2020-08-14 04:28,71.06,1000.72,1019.03,152,12.08,7.01,-92,1
1597372173,2020-08-14 04:29,71.57,1000.72,1019.03,152,12.08,7.11,-91,1
1597372233,2020-08-14 04:30,71.87,1000.66,1018.97,152,12.06,7.15,-92,1
1597372293,2020-08-14 04:31,72.37,1000.69,1019.01,152,12.05,7.24,-91,1
1597372353,2020-08-14 04:32,72.58,1000.73,1019.05,152,12.06,7.29,-91,1
1597372413,2020-08-14 04:33,72.47,1000.65,1018.96,152,12.04,7.25,-93,1
1597372473,2020-08-14 04:34,72.84,1000.67,1018.99,152,12.04,7.33,-91,1
1597372534,2020-08-14 04:35,73.01,1000.61,1018.93,152,12.03,7.35,-94,1
1597372594,2020-08-14 04:36,73.04,1000.65,1018.96,152,12.03,7.36,-92,1
1597372654,2020-08-14 04:37,73.30,1000.67,1018.99,152,11.87,7.26,-93,1
1597372714,2020-08-14 04:38,72.89,1000.61,1018.93,152,12.02,7.32,-90,1
1597372774,2020-08-14 04:39,73.19,1000.63,1018.94,152,12.02,7.38,-92,1
1597372834,2020-08-14 04:40,72.55,1000.64,1018.95,152,12.01,7.24,-92,1
1597372894,2020-08-14 04:41,72.79,1000.65,1018.96,152,12.00,7.28,-91,1
1597372954,2020-08-14 04:42,73.31,1000.66,1018.97,152,11.99,7.37,-94,1
1597373014,2020-08-14 04:43,72.98,1000.66,1018.97,152,11.99,7.31,-93,1
1597373075,2020-08-14 04:44,73.18,1000.68,1018.99,152,11.97,7.33,-93,1
1597373135,2020-08-14 04:45,72.57,1000.66,1018.97,152,11.97,7.21,-93,1
1597373195,2020-08-14 04:46,71.63,1000.65,1018.97,152,11.96,7.01,-90,1
1597373255,2020-08-14 04:47,70.83,1000.62,1018.94,152,11.94,6.82,-91,1
1597373315,2020-08-14 04:48,71.53,1000.63,1018.94,152,11.93,6.96,-93,1
1597373375,2020-08-14 04:49,71.53,1000.62,1018.93,152,11.91,6.94,-94,1
1597373435,2020-08-14 04:50,71.23,1000.61,1018.92,152,11.90,6.87,-93,1
1597373495,2020-08-14 04:51,70.89,1000.65,1018.96,152,11.90,6.80,-93,1
1597373555,2020-08-14 04:52,71.35,1000.61,1018.92,152,11.88,6.87,-93,1
1597373615,2020-08-14 04:53,71.39,1000.62,1018.94,152,11.87,6.87,-91,1
1597373675,2020-08-14 04:54,72.45,1000.63,1018.95,152,11.86,7.08,-91,1
1597373735,2020-08-14 04:55,72.65,1000.59,1018.91,152,11.86,7.12,-94,1
1597373796,2020-08-14 04:56,72.81,1000.57,1018.88,152,11.85,7.14,-93,1
1597373856,2020-08-14 04:57,72.60,1000.56,1018.87,152,11.85,7.10,-93,1
1597373916,2020-08-14 04:58,72.84,1000.58,1018.89,152,11.85,7.15,-92,1
1597373976,2020-08-14 04:59,73.12,1000.60,1018.92,152,11.84,7.19,-91,1
1597374036,2020-08-14 05:00,72.96,1000.60,1018.91,152,11.84,7.16,-93,1
1597374096,2020-08-14 05:01,72.85,1000.63,1018.94,152,11.85,7.15,-94,1
1597374156,2020-08-14 05:02,72.86,1000.65,1018.96,152,11.83,7.13,-92,1
1597374216,2020-08-14 05:03,72.98,1000.65,1018.97,152,11.82,7.14,-91,1
1597374276,2020-08-14 05:04,73.74,1000.71,1019.02,152,11.81,7.29,-93,1
1597374336,2020-08-14 05:05,72.75,1000.73,1019.04,152,11.80,7.08,-93,1
1597374396,2020-08-14 05:06,73.20,1000.74,1019.06,152,11.79,7.16,-92,1
1597374456,2020-08-14 05:07,73.71,1000.76,1019.07,152,11.79,7.26,-92,1
1597374516,2020-08-14 05:08,73.40,1000.79,1019.10,152,11.78,7.19,-91,1
1597374577,2020-08-14 05:09,73.32,1000.82,1019.13,152,11.76,7.15,-91,1
1597374637,2020-08-14 05:10,73.48,1000.78,1019.09,152,11.74,7.17,-92,1
1597374697,2020-08-14 05:11,73.34,1000.79,1019.10,152,11.72,7.12,-92,1
1597374758,2020-08-14 05:12,73.15,1000.79,1019.10,152,11.71,7.07,-94,1
1597374818,2020-08-14 05:13,72.88,1000.77,1019.09,152,11.69,7.00,-92,1
1597374878,2020-08-14 05:14,72.71,1000.78,1019.09,152,11.68,6.96,-92,1
1597374938,2020-08-14 05:15,72.83,1000.79,1019.10,152,11.66,6.96,-93,1
1597374999,2020-08-14 05:16,73.00,1000.82,1019.13,152,11.63,6.97,-92,1
1597375059,2020-08-14 05:17,73.35,1000.80,1019.11,152,11.62,7.02,-92,1
1597375119,2020-08-14 05:18,73.49,1000.81,1019.13,152,11.61,7.04,-92,1
1597375179,2020-08-14 05:19,73.92,1000.81,1019.12,152,11.60,7.12,-92,1
1597375239,2020-08-14 05:20,74.15,1000.85,1019.16,152,11.59,7.15,-91,1
1597375299,2020-08-14 05:21,74.11,1000.83,1019.14,152,11.57,7.13,-92,1
1597375359,2020-08-14 05:22,74.79,1000.82,1019.14,152,11.57,7.26,-94,1
1597375420,2020-08-14 05:23,75.05,1000.82,1019.14,152,11.58,7.32,-93,1
1597375480,2020-08-14 05:24,74.76,1000.84,1019.16,152,11.57,7.25,-92,1
1597375540,2020-08-14 05:25,74.99,1000.86,1019.17,152,11.58,7.31,-91,1
1597375600,2020-08-14 05:26,75.09,1000.87,1019.18,152,11.58,7.33,-92,1
1597375660,2020-08-14 05:27,74.94,1000.91,1019.23,152,11.57,7.29,-92,1
1597375720,2020-08-14 05:28,74.69,1000.88,1019.20,152,11.59,7.26,-92,1
1597375780,2020-08-14 05:29,73.52,1000.89,1019.20,152,11.59,7.03,-93,1
1597375840,2020-08-14 05:30,73.40,1000.87,1019.18,152,11.59,7.01,-93,1
1597375900,2020-08-14 05:31,72.95,1000.89,1019.20,152,11.58,6.91,-92,1
1597375960,2020-08-14 05:32,73.07,1000.90,1019.21,152,11.57,6.92,-92,1
1597376020,2020-08-14 05:33,72.99,1000.91,1019.22,152,11.55,6.89,-93,1
1597376081,2020-08-14 05:34,73.21,1000.91,1019.23,152,11.54,6.92,-93,1
1597376141,2020-08-14 05:35,73.30,1000.93,1019.24,152,11.53,6.93,-91,1
1597376201,2020-08-14 05:36,73.66,1000.90,1019.21,152,11.52,6.99,-90,1
1597376261,2020-08-14 05:37,74.07,1000.90,1019.21,152,11.51,7.06,-91,1
1597376321,2020-08-14 05:38,74.43,1000.90,1019.21,152,11.50,7.12,-92,1
1597376381,2020-08-14 05:39,74.69,1000.92,1019.23,152,11.50,7.17,-92,1